Location: Unspecified
(42.9300°N, 71.1866°W)
Time: 21:35:22
(UTC-04:00)

Okean 3 - Visible Passes

Search period start: 23 April 2017 00:00
Search period end: 03 May 2017 00:00
Orbit: 577 x 604 km, 82.5° (Epoch: 22 April)

Date Brightness Start Highest point End Pass type
(mag) Time Alt. Az. Time Alt. Az. Time Alt. Az.
23 Apr 5.8 23:55:09 21° N 23:55:09 21° N 23:56:40 10° N visible
25 Apr 5.8 00:03:09 22° NNW 00:03:09 22° NNW 00:04:50 10° N visible
25 Apr 5.9 22:34:35 13° NE 22:34:35 13° NE 22:35:17 10° NE visible
26 Apr 5.8 00:11:07 20° NNW 00:11:07 20° NNW 00:12:51 10° NNW visible
26 Apr 5.5 22:42:32 19° NE 22:42:32 19° NE 22:43:58 10° NNE visible
27 Apr 6.0 00:19:04 17° NW 00:19:04 17° NW 00:20:44 10° NNW visible
27 Apr 5.1 22:50:29 26° NNE 22:50:29 26° NNE 22:52:28 10° NNE visible
28 Apr 6.2 00:27:00 13° NW 00:27:00 13° NW 00:28:17 10° NW visible
28 Apr 4.8 22:58:23 35° NNE 22:58:23 35° NNE 23:00:52 10° NNE visible
29 Apr 4.6 23:06:16 42° N 23:06:16 42° N 23:09:08 10° N visible
30 Apr 5.6 21:37:36 13° ENE 21:37:36 13° ENE 21:38:39 10° NE visible
30 Apr 4.7 23:14:07 39° NW 23:14:07 39° NW 23:17:18 10° N visible
01 May 5.1 21:45:26 19° ENE 21:45:26 19° ENE 21:47:42 10° NE visible
01 May 5.0 23:21:57 30° WNW 23:21:57 30° WNW 23:25:21 10° NNW visible
02 May 4.5 21:53:14 30° ENE 21:53:14 30° ENE 21:56:24 10° NNE visible
02 May 5.5 23:29:45 21° WNW 23:30:00 21° WNW 23:33:14 10° NNW visible
